Home   Weather   Feldbach   Past weeks
Flag for Austria

Past Weather in Feldbach, Styria, Austria — Yesterday and Last 2 Weeks

Now
27 °F

Chilly.


Feels Like: 27 °F
Forecast: 53 / 19 °F
Wind: 1 mph from North

Location: Graz-Thalerhof-Flughafen

Current Time: Apr 1, 2020 at 4:52:15 am

Latest Report: Apr 1, 2020 at 3:00 am


Visibility: 19 mi

Pressure: 30.31 "Hg

Humidity: 81%

Dew Point: 22 °F

Location of FeldbachLocation

Past Weather in Feldbach — Graph

°F

Feldbach Temperature Yesterday

Maximum temperature yesterday: 42 °F (at 3:00 pm)
Minimum temperature yesterday: 23 °F (at 7:00 am)
Average temperature yesterday: 35 °F

High & Low Weather Summary for the Past Weeks

 TemperatureHumidityPressure
High69 °F (Mar 20, 3:00 pm)96% (Mar 19, 5:00 am)30.54 "Hg (Mar 19, 5:00 am)
Low23 °F (Mar 31, 7:00 am)28% (Mar 17, 2:00 pm)29.86 "Hg (Mar 28, 5:00 pm)
Average42 °F62%30.25 "Hg
* Reported Mar 17 2:00 am — Apr 1 3:00 am, Feldbach. Weather by CustomWeather, © 2020

Note: Actual official high and low records may vary slightly from our data, if they occured in-between our weather recording intervals... More about our weather records

Feldbach Weather History for the Previous 24 Hours

Scroll right to see more
 ConditionsComfort  
Time TempWeatherWind HumidityBarometerVisibility
3:00 am
Wed, Apr 1
27 °FChilly.1 mph81%30.31 "Hg19 mi
2:00 am29 °FPassing clouds.1 mph77%30.32 "Hg22 mi
1:00 am29 °FOvercast.1 mph79%30.33 "Hg19 mi
12:00 am32 °FPassing clouds.2 mph76%30.33 "Hg28 mi
11:00 pm
Tue, Mar 31
33 °FPassing clouds.2 mph70%30.33 "Hg25 mi
10:00 pm34 °FPassing clouds.1 mph68%30.32 "Hg25 mi
9:00 pm36 °FPassing clouds.6 mph62%30.31 "Hg28 mi
8:00 pm37 °FPassing clouds.6 mph48%30.28 "Hg34 mi
7:00 pm39 °FPartly sunny.3 mph41%30.26 "Hg43 mi
6:00 pm41 °FPartly sunny.2 mph40%30.24 "Hg37 mi
5:00 pm41 °FPartly sunny.6 mph39%30.24 "Hg37 mi
4:00 pm42 °FPartly sunny.2 mph37%30.24 "Hg31 mi
3:00 pm42 °FPartly sunny.3 mph33%30.24 "Hg40 mi
2:00 pm41 °FPartly sunny.3 mph32%30.26 "Hg25 mi
1:00 pm41 °FScattered clouds.2 mph33%30.28 "Hg34 mi
12:00 pm38 °FPartly sunny.2 mph35%30.30 "Hg37 mi
11:00 am40 °FScattered clouds.2 mph37%30.31 "Hg31 mi
10:00 am38 °FPassing clouds.1 mph40%30.32 "Hg37 mi
9:00 am33 °FPassing clouds.1 mph59%30.33 "Hg25 mi
8:00 am27 °FPassing clouds.1 mph72%30.34 "Hg22 mi
7:00 am23 °FCold.1 mph69%30.34 "Hg25 mi
6:00 am25 °FCold.1 mph66%30.33 "Hg28 mi
5:00 am26 °FPassing clouds.1 mph67%30.32 "Hg28 mi
Weather by CustomWeather, © 2020

See weather overview

Advertising